FW1786 Weather Reports


Display with metric or nautical units.
time (UTC)temp
F
wind
direction
speed
MPH
gust
MPH
rain 1hr
in
rain 24hr
in
rain mn
in
humidity
%
barometer
mb
20190326085018 51 340 2.0 4.0 0.00 0.00 0.00 82 1025.8
20190326084527 51 340 2.0 4.0 0.00 0.00 0.00 82 1025.8
20190326084017 51 340 3.0 4.0 0.00 0.00 0.00 82 1025.8
20190326083528 51 340 3.0 5.0 0.00 0.00 0.00 82 1025.9
20190326083022 51 340 3.0 4.0 0.00 0.00 0.00 82 1025.9
20190326082513 51 340 3.0 4.0 0.00 0.00 0.00 82 1025.8
20190326082023 52 340 3.0 5.0 0.00 0.00 0.00 82 1025.9
20190326081512 52 340 3.0 5.0 0.00 0.00 0.00 81 1025.8
20190326081022 52 340 4.0 5.0 0.00 0.00 0.00 81 1025.8
20190326080512 52 340 4.0 5.0 0.00 0.00 0.00 81 1025.8
20190326080022 52 340 4.0 5.0 0.00 0.00 0.00 80 1025.8
20190326075513 52 335 3.0 4.0 0.00 0.00 0.00 80 1025.8
20190326075022 52 335 2.0 3.0 0.00 0.00 0.00 80 1025.8
20190326074517 53 335 2.0 4.0 0.00 0.00 0.00 80 1025.9
20190326074027 53 335 3.0 4.0 0.00 0.00 0.00 79 1025.8
20190326073517 53 335 3.0 4.0 0.00 0.00 0.00 79 1025.7
20190326073027 53 335 3.0 5.0 0.00 0.00 0.00 79 1025.7
20190326072518 53 335 4.0 5.0 0.00 0.00 0.00 79 1025.6
20190326072027 53 335 3.0 6.0 0.00 0.00 0.00 78 1025.7
20190326071518 54 335 5.0 8.0 0.00 0.00 0.00 78 1025.7
20190326071028 54 332 5.0 8.0 0.00 0.00 0.00 78 1025.7
20190326070521 54 335 5.0 6.0 0.00 0.00 0.00 78 1025.7
20190326070012 54 340 5.0 8.0 0.00 0.00 0.00 78 1025.7
20190326065522 54 354 5.0 8.0 0.00 0.00 0.00 77 1025.8
20190326065012 55 345 5.0 6.0 0.00 0.00 0.00 77 1025.8
20190326064522 55 340 5.0 8.0 0.00 0.00 0.00 77 1025.8
20190326064013 55 345 5.0 8.0 0.00 0.00 0.00 76 1025.8
20190326063522 55 350 5.0 8.0 0.00 0.00 0.00 76 1025.8
20190326063012 55 350 5.0 9.0 0.00 0.00 0.00 76 1025.7
20190326062522 55 3 6.0 10.0 0.00 0.00 0.00 75 1025.7
20190326062015 56 356 6.0 12.0 0.00 0.00 0.00 75 1025.7
20190326061525 56 340 8.0 14.0 0.00 0.00 0.00 75 1025.6
20190326061015 56 360 8.0 14.0 0.00 0.00 0.00 75 1025.6
20190326060525 56 4 9.0 14.0 0.00 0.00 0.00 74 1025.5
20190326060017 56 345 8.0 15.0 0.00 0.03 0.00 74 1025.5
20190326055527 56 10 9.0 15.0 0.00 0.03 0.00 74 1025.4
20190326055016 56 360 9.0 14.0 0.00 0.03 0.00 73 1025.3
20190326054526 56 355 9.0 15.0 0.00 0.03 0.00 73 1025.2
20190326054021 57 350 9.0 14.0 0.00 0.03 0.00 73 1025.2
20190326053532 57 356 9.0 14.0 0.00 0.03 0.00 72 1025.2
20190326053022 57 8 9.0 14.0 0.00 0.03 0.00 72 1025.2
20190326052532 57 350 8.0 13.0 0.00 0.03 0.00 72 1025.2
20190326052023 57 7 9.0 13.0 0.00 0.03 0.00 72 1025.1
20190326051530 57 350 9.0 16.0 0.00 0.03 0.00 71 1025.1
20190326051022 58 3 10.0 17.0 0.00 0.03 0.00 71 1025.0
20190326050532 58 345 11.0 17.0 0.00 0.03 0.00 70 1024.9
20190326050018 58 317 10.0 16.0 0.00 0.03 0.03 70 1024.9
20190326045525 58 350 11.0 17.0 0.00 0.03 0.03 69 1024.9
20190326045030 58 350 13.0 17.0 0.00 0.03 0.03 69 1024.9
20190326044515 59 360 10.0 16.0 0.00 0.03 0.03 69 1024.9
20190326044019 59 350 11.0 15.0 0.00 0.03 0.03 69 1024.9
20190326043524 59 350 11.0 17.0 0.00 0.03 0.03 69 1024.8
20190326043029 59 357 12.0 17.0 0.00 0.03 0.03 69 1024.7
20190326042514 59 350 10.0 16.0 0.00 0.03 0.03 69 1024.7
20190326042019 59 356 11.0 16.0 0.00 0.03 0.03 70 1024.7
20190326041524 58 350 12.0 14.0 0.00 0.03 0.03 70 1024.6
20190326041028 58 358 10.0 14.0 0.00 0.03 0.03 70 1024.6
20190326040517 58 340 9.0 13.0 0.00 0.03 0.03 71 1024.6
20190326040022 58 356 8.0 12.0 0.00 0.03 0.03 71 1024.5
20190326035526 58 350 7.0 11.0 0.00 0.03 0.03 71 1024.5
20190326035031 58 340 6.0 9.0 0.00 0.03 0.03 71 1024.4
20190326034516 59 340 5.0 8.0 0.00 0.03 0.03 70 1024.4
20190326034021 59 340 5.0 6.0 0.00 0.03 0.03 70 1024.4
20190326033524 59 329 5.0 8.0 0.00 0.03 0.03 70 1024.3
20190326033029 59 340 5.0 8.0 0.00 0.03 0.03 69 1024.2
20190326032533 60 340 5.0 8.0 0.00 0.03 0.03 69 1024.2
20190326032018 60 334 5.0 8.0 0.00 0.03 0.03 68 1024.1
20190326031522 60 340 5.0 8.0 0.00 0.03 0.03 67 1024.0
20190326031024 61 335 5.0 9.0 0.00 0.03 0.03 66 1023.9
20190326030533 61 17 5.0 9.0 0.00 0.03 0.03 66 1023.9
20190326030019 61 340 5.0 6.0 0.00 0.03 0.03 65 1023.9
20190326025524 61 345 5.0 9.0 0.00 0.03 0.03 65 1023.7
20190326025028 62 345 5.0 9.0 0.00 0.03 0.03 65 1023.7
20190326024533 62 350 6.0 11.0 0.00 0.03 0.03 64 1023.6
20190326024018 62 340 7.0 11.0 0.00 0.03 0.03 64 1023.5
20190326023524 62 345 8.0 11.0 0.00 0.03 0.03 63 1023.5
20190326023028 62 359 8.0 12.0 0.00 0.03 0.03 63 1023.3
20190326022514 63 350 9.0 12.0 0.00 0.03 0.03 62 1023.3
20190326022021 63 345 8.0 12.0 0.00 0.03 0.03 62 1023.2
20190326021528 63 350 8.0 12.0 0.00 0.03 0.03 62 1023.1
20190326021033 63 354 8.0 12.0 0.00 0.03 0.03 62 1023.0
20190326020517 63 350 8.0 12.0 0.00 0.03 0.03 61 1022.9
20190326020024 64 7 8.0 11.0 0.00 0.03 0.03 61 1022.8
20190326015529 64 350 8.0 11.0 0.00 0.03 0.03 61 1022.7
20190326015014 64 350 7.0 10.0 0.00 0.03 0.03 60 1022.6
20190326014519 64 7 7.0 11.0 0.00 0.03 0.03 60 1022.6
20190326014025 65 350 7.0 11.0 0.00 0.03 0.03 60 1022.5
20190326013531 65 345 5.0 10.0 0.00 0.03 0.03 59 1022.5
20190326013015 65 350 7.0 10.0 0.00 0.03 0.03 59 1022.5
20190326012525 65 358 6.0 9.0 0.00 0.03 0.03 58 1022.4
20190326012032 66 350 7.0 9.0 0.00 0.03 0.03 57 1022.4
20190326011516 66 345 6.0 8.0 0.00 0.03 0.03 57 1022.3
20190326011026 66 350 4.0 8.0 0.00 0.03 0.03 56 1022.3
20190326010530 67 345 5.0 8.0 0.00 0.03 0.03 55 1022.3
20190326010016 67 350 6.0 9.0 0.00 0.12 0.03 55 1022.3
20190326005521 67 340 7.0 9.0 0.00 0.12 0.03 54 1022.2
20190326005027 67 356 7.0 9.0 0.00 0.12 0.03 54 1022.2
20190326004533 68 350 7.0 11.0 0.00 0.12 0.03 53 1022.1
20190326004019 68 13 7.0 10.0 0.00 0.12 0.03 53 1022.1
20190326003524 68 350 7.0 12.0 0.00 0.12 0.03 53 1022.0
20190326003013 68 340 6.0 12.0 0.00 0.12 0.03 52 1022.0
20190326002519 68 354 7.0 12.0 0.00 0.12 0.03 52 1022.0
20190326002025 68 350 8.0 13.0 0.00 0.12 0.03 51 1022.0
20190326001531 69 345 10.0 13.0 0.00 0.12 0.03 51 1022.0
20190326001017 69 334 9.0 15.0 0.00 0.12 0.03 51 1022.0
20190326000525 69 350 8.0 12.0 0.00 0.12 0.03 50 1022.0
20190326000059 69 14 8.0 14.0 0.00 0.12 0.03 50 1022.0
20190325235518 70 356 9.0 15.0 0.00 0.12 0.03 49 1021.9
20190325235024 70 357 11.0 15.0 0.00 0.12 0.03 49 1021.9
20190325234529 70 350 11.0 15.0 0.00 0.12 0.03 49 1021.9
20190325234019 70 350 10.0 16.0 0.00 0.12 0.03 48 1021.9
20190325233526 71 350 11.0 15.0 0.00 0.12 0.03 48 1021.8
20190325233032 71 345 9.0 15.0 0.00 0.12 0.03 48 1021.8
20190325232518 71 340 11.0 14.0 0.00 0.12 0.03 48 1021.7
20190325232025 71 340 10.0 14.0 0.00 0.12 0.03 48 1021.7
20190325231530 71 335 8.0 15.0 0.00 0.12 0.03 47 1021.7
20190325231014 71 350 12.0 16.0 0.00 0.12 0.03 47 1021.7
20190325230521 71 358 10.0 16.0 0.00 0.12 0.03 47 1021.6
20190325230027 72 4 12.0 17.0 0.00 0.12 0.03 46 1021.6
20190325225531 72 345 13.0 17.0 0.00 0.12 0.03 46 1021.6
20190325225022 72 336 8.0 15.0 0.00 0.12 0.03 47 1021.6
20190325224528 72 328 11.0 17.0 0.00 0.12 0.03 46 1021.6
20190325224016 72 325 11.0 20.0 0.00 0.12 0.03 46 1021.6
20190325223523 72 9 14.0 20.0 0.00 0.12 0.03 47 1021.5
20190325223030 72 340 11.0 18.0 0.00 0.12 0.03 47 1021.5
20190325222518 72 340 12.0 17.0 0.00 0.12 0.03 47 1021.6
20190325222024 72 356 11.0 17.0 0.00 0.12 0.03 47 1021.6
20190325221533 73 345 13.0 17.0 0.00 0.12 0.03 46 1021.5
20190325221018 72 15 11.0 17.0 0.00 0.12 0.03 47 1021.5
20190325220525 73 321 13.0 17.0 0.00 0.12 0.03 48 1021.6
20190325220015 73 354 9.0 18.0 0.00 0.12 0.03 48 1021.6
20190325215521 72 350 11.0 18.0 0.00 0.12 0.03 48 1021.6
20190325215026 72 345 13.0 19.0 0.00 0.12 0.03 47 1021.7
20190325214532 72 345 14.0 19.0 0.00 0.12 0.03 48 1021.6
20190325214018 72 336 13.0 19.0 0.00 0.12 0.03 49 1021.7
20190325213525 72 331 10.0 19.0 0.00 0.12 0.03 49 1021.8
20190325213031 72 354 12.0 23.0 0.00 0.12 0.03 49 1021.8
20190325212517 72 3 17.0 23.0 0.00 0.12 0.03 48 1021.8
20190325212024 72 350 9.0 18.0 0.00 0.12 0.03 50 1021.8
20190325211514 72 345 13.0 18.0 0.00 0.12 0.03 49 1021.8
20190325211021 72 2 13.0 19.0 0.00 0.12 0.03 49 1021.9
20190325210527 72 350 13.0 19.0 0.00 0.12 0.03 48 1021.9
20190325210013 73 350 12.0 18.0 0.00 0.12 0.03 49 1021.9
20190325205521 72 329 5.0 17.0 0.00 0.12 0.03 50 1021.9
20190325205028 72 355 14.0 17.0 0.00 0.12 0.03 50 1021.9
20190325204514 72 358 12.0 15.0 0.00 0.12 0.03 51 1022.0
20190325204021 72 2 11.0 16.0 0.00 0.12 0.03 50 1022.1
20190325203528 72 345 12.0 16.0 0.00 0.12 0.03 49 1022.2
20190325203015 72 340 12.0 20.0 0.00 0.12 0.03 51 1022.3
20190325202522 72 340 14.0 19.0 0.00 0.12 0.03 49 1022.3
20190325202014 72 24 14.0 19.0 0.00 0.12 0.03 50 1022.4
20190325201520 71 327 10.0 18.0 0.00 0.12 0.03 50 1022.5
20190325201027 71 350 13.0 19.0 0.00 0.12 0.03 51 1022.5
20190325200515 71 350 12.0 19.0 0.00 0.12 0.03 51 1022.5
20190325200022 72 333 15.0 19.0 0.00 0.12 0.03 50 1022.5
20190325195528 71 336 10.0 16.0 0.00 0.12 0.03 53 1022.6
20190325195014 71 25 12.0 22.0 0.00 0.12 0.03 53 1022.6
20190325194522 71 350 12.0 22.0 0.00 0.12 0.03 52 1022.7
20190325194029 71 360 10.0 19.0 0.00 0.12 0.03 54 1022.8
20190325193519 71 12 13.0 20.0 0.00 0.12 0.03 52 1022.8
20190325193026 71 4 14.0 20.0 0.00 0.12 0.03 53 1022.8
20190325192531 71 312 14.0 19.0 0.00 0.12 0.03 52 1022.8
20190325192020 71 301 10.0 20.0 0.00 0.12 0.03 53 1023.0
20190325191526 71 345 12.0 21.0 0.00 0.12 0.03 53 1023.0
20190325191023 70 323 13.0 21.0 0.00 0.12 0.03 53 1023.0
20190325190531 70 328 14.0 21.0 0.00 0.12 0.03 54 1023.0
20190325190018 70 329 16.0 21.0 0.00 0.12 0.03 53 1023.1
20190325185526 70 350 11.0 18.0 0.00 0.12 0.03 53 1023.1
20190325185032 70 3 14.0 20.0 0.00 0.12 0.03 57 1023.2
20190325184524 70 355 15.0 22.0 0.00 0.12 0.03 54 1023.2
20190325184030 70 5 15.0 22.0 0.00 0.12 0.03 54 1023.3
20190325183517 70 316 14.0 23.0 0.00 0.12 0.03 54 1023.3
20190325183025 70 340 14.0 23.0 0.00 0.12 0.03 55 1023.2
20190325182532 69 350 13.0 21.0 0.00 0.12 0.03 56 1023.3
20190325182018 69 354 12.0 21.0 0.00 0.12 0.03 55 1023.4
20190325181526 70 350 11.0 19.0 0.00 0.12 0.03 57 1023.3
20190325181013 69 5 14.0 19.0 0.00 0.12 0.03 56 1023.5
20190325180520 69 358 11.0 19.0 0.00 0.12 0.03 56 1023.5
20190325180027 69 336 14.0 19.0 0.00 0.12 0.03 57 1023.5
20190325175516 68 350 9.0 19.0 0.00 0.12 0.03 56 1023.5
20190325175025 68 7 13.0 19.0 0.00 0.12 0.03 55 1023.4
20190325174531 68 340 13.0 21.0 0.00 0.12 0.03 55 1023.5
20190325174020 68 350 11.0 20.0 0.00 0.12 0.03 57 1023.5
20190325173526 68 6 11.0 17.0 0.00 0.12 0.03 56 1023.5
20190325173014 68 1 11.0 17.0 0.00 0.12 0.03 56 1023.5
20190325172521 68 335 13.0 20.0 0.00 0.12 0.03 56 1023.5
20190325172028 68 4 14.0 20.0 0.00 0.12 0.03 56 1023.5
20190325171515 68 354 11.0 17.0 0.00 0.12 0.03 58 1023.5
20190325171016 68 360 12.0 20.0 0.00 0.12 0.03 58 1023.5
20190325170523 67 340 13.0 20.0 0.00 0.12 0.03 58 1023.5
20190325170030 67 350 13.0 19.0 0.00 0.12 0.03 58 1023.5
20190325165517 66 335 13.0 19.0 0.00 0.12 0.03 58 1023.6
20190325165024 66 360 13.0 22.0 0.00 0.12 0.03 58 1023.6
20190325164532 66 350 13.0 22.0 0.00 0.12 0.03 60 1023.6
20190325164019 66 7 14.0 20.0 0.00 0.12 0.03 58 1023.6
20190325163526 66 345 15.0 21.0 0.00 0.12 0.03 59 1023.6
20190325163014 66 354 14.0 21.0 0.00 0.12 0.03 59 1023.4
20190325162522 66 355 14.0 19.0 0.00 0.12 0.03 60 1023.4
20190325162013 66 340 13.0 19.0 0.00 0.12 0.03 60 1023.3
20190325161520 65 356 13.0 17.0 0.00 0.12 0.03 60 1023.3
20190325161029 65 356 10.0 16.0 0.00 0.12 0.03 63 1023.3
20190325160517 65 11 11.0 21.0 0.00 0.12 0.03 62 1023.3
20190325160027 64 340 14.0 21.0 0.00 0.12 0.03 62 1023.2
20190325155513 64 340 11.0 19.0 0.00 0.12 0.03 64 1023.2
20190325155021 64 9 11.0 17.0 0.00 0.12 0.03 64 1023.2
20190325154529 63 36 10.0 18.0 0.00 0.12 0.03 65 1023.1
20190325154016 63 340 14.0 17.0 0.00 0.12 0.03 64 1023.1
20190325153528 63 350 11.0 17.0 0.00 0.12 0.03 66 1023.0
20190325153015 62 350 12.0 19.0 0.00 0.12 0.03 66 1023.0
20190325152523 62 354 14.0 19.0 0.00 0.12 0.03 68 1022.9
20190325152030 62 350 14.0 16.0 0.00 0.12 0.03 68 1022.9
20190325151518 62 2 8.0 17.0 0.00 0.12 0.03 71 1022.8
20190325151026 61 355 13.0 18.0 0.00 0.12 0.03 70 1022.6
20190325150514 61 2 12.0 18.0 0.00 0.12 0.03 71 1022.6
20190325150022 61 359 13.0 18.0 0.00 0.12 0.03 71 1022.5
20190325145530 60 17 13.0 18.0 0.00 0.12 0.03 73 1022.4
20190325145021 60 23 10.0 15.0 0.00 0.12 0.03 74 1022.3
20190325144529 59 356 11.0 17.0 0.00 0.12 0.03 75 1022.1
20190325144018 59 340 11.0 16.0 0.00 0.12 0.03 75 1022.0
20190325143525 59 4 11.0 17.0 0.00 0.12 0.03 76 1021.8
20190325143013 58 2 12.0 17.0 0.00 0.12 0.03 76 1021.7
20190325142521 58 8 11.0 16.0 0.00 0.12 0.03 77 1021.7
20190325142029 58 336 12.0 15.0 0.00 0.12 0.03 77 1021.7
20190325141517 57 24 10.0 15.0 0.00 0.12 0.03 78 1021.6
20190325141025 57 2 10.0 13.0 0.00 0.12 0.03 79 1021.5
20190325140517 57 4 8.0 11.0 0.00 0.12 0.03 80 1021.4
20190325140023 57 356 8.0 12.0 0.00 0.12 0.03 80 1021.3
20190325135531 56 345 8.0 12.0 0.00 0.12 0.03 81 1021.2
20190325135019 56 4 6.0 10.0 0.00 0.12 0.03 82 1021.2
20190325134528 55 345 7.0 10.0 0.00 0.12 0.03 83 1021.1
20190325134017 55 350 6.0 10.0 0.00 0.12 0.03 83 1021.1
20190325133525 55 335 5.0 8.0 0.00 0.12 0.03 84 1021.0
20190325133013 54 350 5.0 8.0 0.00 0.12 0.03 85 1021.0
20190325132522 54 331 6.0 8.0 0.00 0.12 0.03 85 1020.8
20190325132014 54 335 5.0 6.0 0.00 0.12 0.03 85 1020.7
20190325131522 53 335 3.0 6.0 0.00 0.12 0.03 86 1020.6
20190325131030 53 335 4.0 8.0 0.00 0.12 0.03 86 1020.7
20190325130519 53 331 4.0 8.0 0.00 0.12 0.03 86 1020.7
20190325130027 53 335 4.0 8.0 0.00 0.12 0.03 87 1020.6
20190325125515 52 336 6.0 8.0 0.00 0.12 0.03 87 1020.7
20190325125025 52 340 2.0 4.0 0.00 0.12 0.03 88 1020.3
20190325124513 51 340 1.0 3.0 0.00 0.12 0.03 86 1020.2
20190325124022 52 340 2.0 3.0 0.00 0.12 0.03 85 1020.2
20190325123515 52 340 2.0 3.0 0.00 0.12 0.03 84 1020.2
20190325123025 52 340 2.0 3.0 0.00 0.12 0.03 84 1020.2
20190325122514 52 340 2.0 4.0 0.00 0.12 0.03 84 1020.2
20190325122022 52 340 2.0 4.0 0.00 0.12 0.03 84 1020.2
20190325121512 53 340 3.0 4.0 0.00 0.12 0.03 84 1020.1
20190325121021 53 340 2.0 4.0 0.00 0.12 0.03 84 1019.9
20190325120530 53 340 3.0 5.0 0.00 0.12 0.03 84 1019.9
20190325120019 53 340 4.0 5.0 0.00 0.12 0.03 84 1019.9
20190325115529 53 345 4.0 5.0 0.00 0.12 0.03 84 1019.8
20190325115021 53 345 4.0 5.0 0.00 0.12 0.03 84 1019.7
20190325114530 53 345 4.0 6.0 0.00 0.12 0.03 84 1019.7
20190325114021 53 345 4.0 6.0 0.00 0.12 0.03 84 1019.6
20190325113530 54 345 4.0 5.0 0.00 0.12 0.03 84 1019.5
20190325113020 54 340 3.0 5.0 0.00 0.12 0.03 84 1019.5
20190325112528 54 340 3.0 5.0 0.00 0.12 0.03 84 1019.5
20190325112016 54 340 3.0 5.0 0.00 0.12 0.03 84 1019.5
20190325111526 54 340 5.0 8.0 0.00 0.12 0.03 84 1019.6
20190325111015 54 340 5.0 8.0 0.00 0.12 0.03 84 1019.5
20190325110528 54 350 4.0 8.0 0.00 0.12 0.03 84 1019.4
20190325110016 54 330 5.0 8.0 0.00 0.12 0.03 84 1019.4
20190325105526 54 354 5.0 10.0 0.00 0.12 0.03 84 1019.3
20190325105016 55 350 7.0 10.0 0.00 0.12 0.03 84 1019.2
20190325104525 55 350 8.0 10.0 0.00 0.12 0.03 84 1019.0
20190325104014 55 345 7.0 11.0 0.00 0.12 0.03 84 1019.0
20190325103523 55 7 7.0 11.0 0.00 0.12 0.03 84 1018.7
20190325103012 55 340 5.0 9.0 0.00 0.12 0.03 83 1018.8
20190325102521 55 350 7.0 10.0 0.00 0.12 0.03 83 1018.7
20190325102013 55 324 8.0 10.0 0.00 0.12 0.03 83 1018.6
20190325101523 55 360 6.0 9.0 0.00 0.12 0.03 83 1018.6
20190325101018 55 340 6.0 9.0 0.00 0.12 0.03 83 1018.5
20190325100528 55 350 4.0 8.0 0.00 0.12 0.03 83 1018.4
20190325100016 55 340 5.0 9.0 0.00 0.12 0.03 83 1018.5
20190325095525 56 334 7.0 9.0 0.00 0.12 0.03 83 1018.4
20190325095015 56 333 5.0 9.0 0.00 0.12 0.03 83 1018.2
20190325094523 56 340 6.0 9.0 0.00 0.12 0.03 83 1018.1
20190325094012 56 340 6.0 9.0 0.00 0.12 0.03 82 1017.9
20190325093526 56 335 5.0 8.0 0.00 0.12 0.03 82 1017.9
20190325093016 56 331 4.0 6.0 0.00 0.12 0.03 82 1017.8
20190325092525 57 345 4.0 5.0 0.00 0.12 0.03 82 1017.7
20190325092014 57 345 4.0 4.0 0.00 0.12 0.03 82 1017.7
20190325091523 57 345 3.0 5.0 0.00 0.12 0.03 82 1017.6
20190325091012 57 345 3.0 6.0 0.00 0.12 0.03 82 1017.4
20190325090522 57 345 3.0 6.0 0.00 0.12 0.03 82 1017.3
20190325090030 57 340 5.0 8.0 0.00 0.12 0.03 82 1017.3
20190325085520 57 330 5.0 9.0 0.00 0.12 0.03 82 1017.0